UTA507 ULLI-URKK

Flight info

Callsign UTA507
Flight time 2h 31m
Altitude 35000
Route SUGIN T873 NIRGI T73 DESUD T834 BEKIP T873 IRDEK L4 EKTUT N72 UMSIS N166 GOTIL/K0870F360 G534 GISID/K0867F370 L91 KL A100 AMEPU W70 BALEG
Aircraft B738/M-SDE2E3FGHIRWXY/LB1

Departure

Time 2026-05-01 09:12
Airport Pulkovo Airport (ULLI)

Arrival

Time 2026-05-01 11:43
Airport Krasnodar Pashkovsky International Airport (URKK)
Time Latitude Longitude Altitude Speed Heading
2026-05-01 08:38 59.79848 30.26338 81 ft 0 kts 106°
2026-05-01 09:05 59.79848 30.26339 82 ft 0 kts 106°
2026-05-01 09:05 59.79844 30.26366 85 ft 5 kts 106°
2026-05-01 09:05 59.79863 30.26444 87 ft 9 kts 29°
2026-05-01 09:05 59.79933 30.26489 88 ft 11 kts 16°
2026-05-01 09:06 59.80008 30.26533 83 ft 11 kts 16°
2026-05-01 09:06 59.80080 30.26575 84 ft 11 kts 16°
2026-05-01 09:06 59.80149 30.26616 86 ft 10 kts 17°
2026-05-01 09:06 59.80217 30.26656 86 ft 10 kts 16°
2026-05-01 09:07 59.80284 30.26695 83 ft 10 kts 17°
2026-05-01 09:07 59.80324 30.26719 85 ft 2 kts 17°
2026-05-01 09:07 59.80344 30.26731 84 ft 5 kts 16°
2026-05-01 09:07 59.80391 30.26769 82 ft 10 kts 40°
2026-05-01 09:08 59.80386 30.26926 84 ft 15 kts 106°
2026-05-01 09:08 59.80352 30.27152 83 ft 19 kts 107°
2026-05-01 09:08 59.80310 30.27439 83 ft 24 kts 106°
2026-05-01 09:08 59.80259 30.27773 85 ft 27 kts 107°
2026-05-01 09:09 59.80211 30.28101 75 ft 16 kts 107°
2026-05-01 09:09 59.80180 30.28306 78 ft 15 kts 106°
2026-05-01 09:09 59.80154 30.28484 76 ft 11 kts 104°
2026-05-01 09:09 59.80178 30.28613 76 ft 10 kts 49°
2026-05-01 09:10 59.80225 30.28719 79 ft 10 kts 49°
2026-05-01 09:10 59.80271 30.28822 75 ft 10 kts 49°
2026-05-01 09:10 59.80310 30.28885 75 ft 5 kts
2026-05-01 09:10 59.80329 30.28843 76 ft 4 kts 290°
2026-05-01 09:11 59.80330 30.28832 74 ft 0 kts 288°
2026-05-01 09:11 59.80335 30.28806 74 ft 9 kts 288°
2026-05-01 09:11 59.80428 30.28191 79 ft 85 kts 287°
2026-05-01 09:11 59.80664 30.26616 85 ft 150 kts 287°
2026-05-01 09:12 59.81000 30.24397 505 ft 172 kts 287°
2026-05-01 09:12 59.81322 30.22080 1310 ft 182 kts 286°
2026-05-01 09:12 59.81718 30.19381 1587 ft 218 kts 286°
2026-05-01 09:12 59.82118 30.16541 2619 ft 208 kts 285°
2026-05-01 09:13 59.82508 30.13803 3455 ft 211 kts 287°
2026-05-01 09:13 59.82934 30.10880 3842 ft 229 kts 288°
2026-05-01 09:13 59.83385 30.07842 4643 ft 228 kts 288°
2026-05-01 09:13 59.83692 30.05821 5103 ft 232 kts 289°
2026-05-01 09:14 59.84134 30.02713 5846 ft 235 kts 281°
2026-05-01 09:14 59.83946 29.99440 6532 ft 247 kts 248°
2026-05-01 09:14 59.82836 29.96780 7160 ft 259 kts 214°
2026-05-01 09:14 59.81156 29.95475 7788 ft 265 kts 197°
2026-05-01 09:15 59.79297 29.94860 8192 ft 283 kts 174°
2026-05-01 09:15 59.77424 29.96237 8508 ft 295 kts 139°
2026-05-01 09:15 59.76192 29.99403 9160 ft 290 kts 111°
2026-05-01 09:15 59.75337 30.03066 9887 ft 294 kts 110°
2026-05-01 09:16 59.74490 30.06789 10489 ft 301 kts 109°
2026-05-01 09:16 59.73599 30.10710 10671 ft 323 kts 109°
2026-05-01 09:16 59.72640 30.14889 10842 ft 344 kts 110°
2026-05-01 09:17 59.70529 30.23878 11488 ft 372 kts 111°
2026-05-01 09:17 59.69412 30.28542 12143 ft 375 kts 110°
2026-05-01 09:17 59.67135 30.37963 13473 ft 382 kts 110°
2026-05-01 09:18 59.65977 30.42730 14132 ft 386 kts 110°
2026-05-01 09:18 59.63619 30.52412 15364 ft 394 kts 110°
2026-05-01 09:19 59.61221 30.62216 16613 ft 401 kts 109°
2026-05-01 09:19 59.59995 30.67210 17217 ft 405 kts 109°
2026-05-01 09:19 59.58759 30.72239 17823 ft 409 kts 109°
2026-05-01 09:20 59.56243 30.82430 18977 ft 416 kts 109°
2026-05-01 09:20 59.53688 30.92732 20009 ft 423 kts 109°
2026-05-01 09:21 59.51076 31.03218 20997 ft 429 kts 109°
2026-05-01 09:21 59.49767 31.08453 21483 ft 433 kts 109°
2026-05-01 09:21 59.47075 31.19181 22417 ft 440 kts 109°
2026-05-01 09:22 59.44348 31.29994 23349 ft 446 kts 109°
2026-05-01 09:22 59.41558 31.41005 24155 ft 452 kts 109°
2026-05-01 09:23 59.40146 31.46551 24559 ft 454 kts 109°
2026-05-01 09:23 59.37296 31.57709 25318 ft 458 kts 108°
2026-05-01 09:24 59.34434 31.68862 26037 ft 462 kts 108°
2026-05-01 09:24 59.32981 31.74501 26387 ft 465 kts 108°
2026-05-01 09:24 59.30038 31.85886 27067 ft 469 kts 108°
2026-05-01 09:25 59.27082 31.97260 27714 ft 473 kts 108°
2026-05-01 09:25 59.24074 32.08776 28343 ft 477 kts 108°
2026-05-01 09:26 59.22552 32.14581 28641 ft 479 kts 108°
2026-05-01 09:26 59.19512 32.26124 29281 ft 481 kts 108°
2026-05-01 09:26 59.17977 32.31923 29764 ft 479 kts 108°
2026-05-01 09:27 59.14921 32.43423 30607 ft 475 kts 108°
2026-05-01 09:27 59.13396 32.49151 30930 ft 475 kts 108°
2026-05-01 09:27 59.11874 32.54852 31269 ft 474 kts 108°
2026-05-01 09:28 59.10370 32.60473 31607 ft 473 kts 108°
2026-05-01 09:28 59.08846 32.66154 31950 ft 472 kts 108°
2026-05-01 09:28 59.07323 32.71815 32291 ft 471 kts 109°
2026-05-01 09:28 59.05802 32.77459 32625 ft 470 kts 109°
2026-05-01 09:29 59.02780 32.88627 33273 ft 468 kts 109°
2026-05-01 09:29 59.01259 32.94227 33590 ft 467 kts 109°
2026-05-01 09:30 58.98222 33.05371 34178 ft 467 kts 110°
2026-05-01 09:30 58.96699 33.10943 34398 ft 467 kts 110°
2026-05-01 09:30 58.93667 33.21990 34873 ft 466 kts 110°
2026-05-01 09:31 58.92010 33.27427 35078 ft 472 kts 117°
2026-05-01 09:31 58.89929 33.32439 35190 ft 483 kts 128°
2026-05-01 09:32 58.82596 33.45890 35198 ft 485 kts 130°
2026-05-01 09:32 58.75237 33.59225 35211 ft 482 kts 129°
2026-05-01 09:33 58.70389 33.68117 35208 ft 480 kts 129°
2026-05-01 09:34 58.63141 33.81378 35212 ft 479 kts 129°
2026-05-01 09:34 58.55895 33.94544 35205 ft 480 kts 129°
2026-05-01 09:35 58.48583 34.07745 35209 ft 482 kts 129°
2026-05-01 09:36 58.43712 34.16494 35214 ft 483 kts 129°
2026-05-01 09:36 58.38797 34.25287 35206 ft 485 kts 129°
2026-05-01 09:37 58.33847 34.34107 35215 ft 486 kts 129°
2026-05-01 09:37 58.26448 34.47227 35214 ft 486 kts 129°
2026-05-01 09:38 58.18982 34.60340 35213 ft 488 kts 131°
2026-05-01 09:39 58.11168 34.72686 35208 ft 490 kts 133°
2026-05-01 09:39 58.05900 34.80848 35207 ft 488 kts 133°
2026-05-01 09:40 57.98050 34.93130 35208 ft 487 kts 133°
2026-05-01 09:41 57.92862 35.01241 35210 ft 487 kts 132°
2026-05-01 09:41 57.85039 35.13405 35209 ft 486 kts 133°
2026-05-01 09:42 57.79850 35.21431 35212 ft 485 kts 133°
2026-05-01 09:43 57.69418 35.37474 35215 ft 484 kts 133°
2026-05-01 09:43 57.64222 35.45421 35212 ft 484 kts 133°
2026-05-01 09:44 57.58514 35.52398 35211 ft 498 kts 149°
2026-05-01 09:44 57.55241 35.54703 35211 ft 505 kts 157°
2026-05-01 09:45 57.48538 35.58425 35202 ft 505 kts 158°
2026-05-01 09:45 57.38444 35.64165 35202 ft 504 kts 157°
2026-05-01 09:46 57.31814 35.68099 35194 ft 501 kts 153°
2026-05-01 09:46 57.25772 35.74077 35200 ft 485 kts 138°
2026-05-01 09:47 57.20281 35.81323 35201 ft 484 kts 137°
2026-05-01 09:47 57.14812 35.88470 35201 ft 484 kts 138°
2026-05-01 09:48 57.09274 35.95577 35199 ft 484 kts 139°
2026-05-01 09:48 57.03755 36.02602 35198 ft 484 kts 139°
2026-05-01 09:49 56.98206 36.09640 35200 ft 484 kts 139°
2026-05-01 09:49 56.92689 36.16619 35202 ft 484 kts 139°
2026-05-01 09:50 56.87135 36.23623 35198 ft 484 kts 139°
2026-05-01 09:50 56.81589 36.30624 35202 ft 482 kts 137°
2026-05-01 09:51 56.76866 36.37540 35204 ft 478 kts 134°
2026-05-01 09:51 56.71765 36.45341 35191 ft 478 kts 134°
2026-05-01 09:52 56.66632 36.52962 35197 ft 478 kts 135°
2026-05-01 09:52 56.61445 36.60579 35190 ft 478 kts 135°
2026-05-01 09:53 56.55892 36.67403 35182 ft 488 kts 150°
2026-05-01 09:53 56.49691 36.72319 35188 ft 489 kts 152°
2026-05-01 09:54 56.43407 36.77166 35189 ft 489 kts 152°
2026-05-01 09:54 56.37205 36.82056 35188 ft 488 kts 152°
2026-05-01 09:55 56.30985 36.87004 35186 ft 488 kts 151°
2026-05-01 09:55 56.26017 36.90945 35192 ft 488 kts 152°
2026-05-01 09:56 56.18746 36.96685 35186 ft 487 kts 152°
2026-05-01 09:56 56.12522 37.01597 35188 ft 486 kts 149°
2026-05-01 09:57 56.07042 37.08212 35193 ft 473 kts 132°
2026-05-01 09:57 56.02828 37.17030 35201 ft 463 kts 120°
2026-05-01 09:58 55.99025 37.26383 35185 ft 465 kts 122°
2026-05-01 09:58 55.94344 37.34425 35180 ft 478 kts 141°
2026-05-01 09:59 55.88748 37.40987 35185 ft 480 kts 142°
2026-05-01 09:59 55.83139 37.47487 35190 ft 480 kts 142°
2026-05-01 10:00 55.77604 37.54022 35190 ft 480 kts 142°
2026-05-01 10:00 55.72980 37.59504 35197 ft 480 kts 142°
2026-05-01 10:01 55.67409 37.66084 35199 ft 480 kts 142°
2026-05-01 10:01 55.61724 37.72249 35213 ft 483 kts 147°
2026-05-01 10:02 55.55739 37.77743 35214 ft 484 kts 149°
2026-05-01 10:02 55.49766 37.83230 35212 ft 483 kts 148°
2026-05-01 10:03 55.43870 37.88756 35217 ft 482 kts 148°
2026-05-01 10:03 55.37734 37.93684 35213 ft 487 kts 160°
2026-05-01 10:04 55.31055 37.95974 35223 ft 489 kts 168°
2026-05-01 10:04 55.24362 37.97800 35212 ft 489 kts 168°
2026-05-01 10:05 55.17628 37.99715 35215 ft 489 kts 168°
2026-05-01 10:05 55.10908 38.01693 35210 ft 488 kts 168°
2026-05-01 10:06 55.04250 38.03662 35217 ft 488 kts 168°
2026-05-01 10:06 54.97544 38.05634 35219 ft 487 kts 168°
2026-05-01 10:07 54.90843 38.07594 35224 ft 487 kts 168°
2026-05-01 10:07 54.84203 38.09529 35217 ft 486 kts 168°
2026-05-01 10:08 54.74192 38.12436 35221 ft 486 kts 169°
2026-05-01 10:09 54.67515 38.14371 35222 ft 485 kts 169°
2026-05-01 10:09 54.60898 38.16292 35224 ft 485 kts 169°
2026-05-01 10:10 54.54242 38.18219 35220 ft 484 kts 169°
2026-05-01 10:10 54.44309 38.21089 35220 ft 483 kts 169°
2026-05-01 10:11 54.37657 38.23017 35217 ft 483 kts 169°
2026-05-01 10:11 54.31074 38.25259 35224 ft 481 kts 165°
2026-05-01 10:12 54.24618 38.28098 35215 ft 481 kts 164°
2026-05-01 10:13 54.14905 38.32400 35218 ft 481 kts 164°
2026-05-01 10:13 54.08412 38.35196 35213 ft 481 kts 165°
2026-05-01 10:14 53.98700 38.39340 35211 ft 480 kts 165°
2026-05-01 10:14 53.92212 38.42102 35213 ft 480 kts 165°
2026-05-01 10:15 53.85726 38.44854 35214 ft 480 kts 165°
2026-05-01 10:15 53.79248 38.47596 35215 ft 480 kts 165°
2026-05-01 10:16 53.72790 38.50290 35209 ft 479 kts 167°
2026-05-01 10:17 53.62961 38.53537 35212 ft 479 kts 169°
2026-05-01 10:17 53.53154 38.56635 35211 ft 479 kts 169°
2026-05-01 10:18 53.43334 38.59836 35206 ft 478 kts 168°
2026-05-01 10:19 53.36803 38.61969 35208 ft 478 kts 169°
2026-05-01 10:19 53.30299 38.64084 35203 ft 477 kts 169°
2026-05-01 10:20 53.20505 38.67254 35201 ft 477 kts 169°
2026-05-01 10:20 53.14018 38.69344 35203 ft 477 kts 169°
2026-05-01 10:21 53.04227 38.72488 35206 ft 477 kts 169°
2026-05-01 10:22 52.94487 38.75601 35202 ft 476 kts 169°
2026-05-01 10:23 52.84712 38.78711 35203 ft 476 kts 169°
2026-05-01 10:23 52.74966 38.81797 35201 ft 476 kts 169°
2026-05-01 10:24 52.61978 38.85888 35202 ft 475 kts 170°
2026-05-01 10:25 52.48992 38.89956 35200 ft 474 kts 170°
2026-05-01 10:26 52.42532 38.91978 35199 ft 474 kts 168°
2026-05-01 10:26 52.36366 38.95691 35199 ft 475 kts 151°
2026-05-01 10:27 52.30834 39.01683 35184 ft 475 kts 146°
2026-05-01 10:28 52.22624 39.10691 35199 ft 475 kts 148°
2026-05-01 10:28 52.14314 39.19458 35204 ft 475 kts 148°
2026-05-01 10:29 52.06007 39.28237 35204 ft 476 kts 148°
2026-05-01 10:30 51.94865 39.40015 35201 ft 477 kts 148°
2026-05-01 10:31 51.83753 39.51681 35210 ft 476 kts 149°
2026-05-01 10:32 51.75425 39.60381 35209 ft 476 kts 149°
2026-05-01 10:32 51.69507 39.64945 35202 ft 471 kts 163°
2026-05-01 10:33 51.63273 39.68233 35191 ft 471 kts 164°
2026-05-01 10:34 51.53909 39.73182 35197 ft 471 kts 164°
2026-05-01 10:34 51.47731 39.76516 35196 ft 471 kts 163°
2026-05-01 10:35 51.38402 39.81550 35195 ft 470 kts 164°
2026-05-01 10:35 51.32229 39.84865 35190 ft 470 kts 164°
2026-05-01 10:36 51.22918 39.89847 35191 ft 469 kts 164°
2026-05-01 10:37 51.16724 39.93149 35192 ft 469 kts 164°
2026-05-01 10:37 51.07472 39.98058 35188 ft 468 kts 165°
2026-05-01 10:38 51.01322 40.01291 35192 ft 467 kts 165°
2026-05-01 10:38 50.95134 40.04538 35191 ft 467 kts 165°
2026-05-01 10:39 50.88952 40.07775 35192 ft 467 kts 165°
2026-05-01 10:39 50.82809 40.10982 35194 ft 466 kts 165°
2026-05-01 10:40 50.76643 40.14195 35194 ft 466 kts 165°
2026-05-01 10:40 50.70513 40.17381 35195 ft 466 kts 165°
2026-05-01 10:41 50.64339 40.20583 35191 ft 465 kts 165°
2026-05-01 10:42 50.55142 40.25335 35193 ft 465 kts 166°
2026-05-01 10:42 50.48998 40.28499 35195 ft 464 kts 166°
2026-05-01 10:43 50.42851 40.31655 35194 ft 464 kts 166°
2026-05-01 10:43 50.36728 40.34791 35195 ft 464 kts 166°
2026-05-01 10:44 50.30586 40.37928 35194 ft 463 kts 166°
2026-05-01 10:44 50.24443 40.41057 35196 ft 463 kts 166°
2026-05-01 10:45 50.18352 40.44151 35192 ft 463 kts 167°
2026-05-01 10:45 50.12232 40.47253 35193 ft 462 kts 167°
2026-05-01 10:46 50.06105 40.50349 35195 ft 462 kts 167°
2026-05-01 10:46 50.00030 40.53414 35194 ft 461 kts 167°
2026-05-01 10:47 49.93912 40.56496 35193 ft 461 kts 167°
2026-05-01 10:47 49.87802 40.59566 35195 ft 460 kts 167°
2026-05-01 10:48 49.81738 40.62605 35188 ft 460 kts 167°
2026-05-01 10:48 49.75648 40.65649 35192 ft 459 kts 167°
2026-05-01 10:49 49.70593 40.68170 35190 ft 459 kts 167°
2026-05-01 10:49 49.63434 40.71136 35188 ft 450 kts 178°
2026-05-01 10:50 49.57283 40.71217 35195 ft 443 kts 187°
2026-05-01 10:50 49.52156 40.70959 35187 ft 443 kts 187°
2026-05-01 10:51 49.45988 40.70741 35190 ft 443 kts 186°
2026-05-01 10:51 49.39846 40.70328 35179 ft 437 kts 194°
2026-05-01 10:52 49.34118 40.67811 35182 ft 426 kts 210°
2026-05-01 10:52 49.28846 40.63666 35185 ft 424 kts 211°
2026-05-01 10:53 49.23602 40.59502 35187 ft 424 kts 211°
2026-05-01 10:53 49.18380 40.55412 35180 ft 424 kts 211°
2026-05-01 10:54 49.13128 40.51329 35186 ft 423 kts 211°
2026-05-01 10:54 49.07869 40.47254 35192 ft 423 kts 211°
2026-05-01 10:55 49.02656 40.43221 35169 ft 422 kts 211°
2026-05-01 10:55 48.97400 40.39164 35182 ft 422 kts 211°
2026-05-01 10:56 48.92164 40.35134 35179 ft 421 kts 211°
2026-05-01 10:56 48.86617 40.32119 35183 ft 429 kts 196°
2026-05-01 10:57 48.80702 40.30853 35175 ft 431 kts 193°
2026-05-01 10:57 48.74753 40.29661 35177 ft 430 kts 193°
2026-05-01 10:58 48.68840 40.28431 35174 ft 428 kts 194°
2026-05-01 10:58 48.62975 40.27192 35179 ft 427 kts 194°
2026-05-01 10:59 48.57090 40.25949 35174 ft 425 kts 194°
2026-05-01 10:59 48.51232 40.24716 35177 ft 424 kts 194°
2026-05-01 11:00 48.45419 40.23501 35175 ft 422 kts 194°
2026-05-01 11:00 48.39597 40.22298 35176 ft 421 kts 194°
2026-05-01 11:01 48.33827 40.21107 35176 ft 420 kts 194°
2026-05-01 11:01 48.28037 40.19914 35175 ft 418 kts 194°
2026-05-01 11:02 48.22273 40.18728 35177 ft 417 kts 194°
2026-05-01 11:02 48.16558 40.17552 35171 ft 416 kts 195°
2026-05-01 11:03 48.10818 40.16376 35165 ft 415 kts 195°
2026-05-01 11:03 48.05169 40.14988 35174 ft 410 kts 198°
2026-05-01 11:04 47.99572 40.13289 35167 ft 410 kts 198°
2026-05-01 11:04 47.94003 40.11618 35167 ft 409 kts 198°
2026-05-01 11:05 47.88394 40.09950 35156 ft 408 kts 200°
2026-05-01 11:05 47.83005 40.07676 35162 ft 404 kts 203°
2026-05-01 11:06 47.77592 40.05285 35165 ft 404 kts 203°
2026-05-01 11:06 47.72228 40.02942 35157 ft 404 kts 203°
2026-05-01 11:07 47.64121 39.99436 35132 ft 403 kts 203°
2026-05-01 11:07 47.58759 39.97125 35127 ft 403 kts 203°
2026-05-01 11:08 47.53365 39.94804 35132 ft 402 kts 203°
2026-05-01 11:09 47.45263 39.91554 35128 ft 404 kts 200°
2026-05-01 11:09 47.39792 39.89646 35133 ft 404 kts 200°
2026-05-01 11:10 47.31629 39.86746 35140 ft 402 kts 201°
2026-05-01 11:10 47.26206 39.84797 35141 ft 402 kts 201°
2026-05-01 11:11 47.20764 39.82847 35139 ft 401 kts 201°
2026-05-01 11:11 47.15330 39.80913 35142 ft 401 kts 201°
2026-05-01 11:12 47.09938 39.79005 35142 ft 400 kts 200°
2026-05-01 11:12 47.04504 39.77083 35148 ft 400 kts 201°
2026-05-01 11:13 46.99128 39.75185 35148 ft 400 kts 200°
2026-05-01 11:13 46.93693 39.73270 35146 ft 400 kts 200°
2026-05-01 11:14 46.88304 39.71376 35146 ft 400 kts 200°
2026-05-01 11:14 46.82886 39.69474 35154 ft 400 kts 200°
2026-05-01 11:15 46.77439 39.67565 35146 ft 402 kts 200°
2026-05-01 11:15 46.72013 39.65669 35146 ft 403 kts 200°
2026-05-01 11:16 46.66540 39.63760 35143 ft 404 kts 200°
2026-05-01 11:16 46.61117 39.61875 35140 ft 403 kts 200°
2026-05-01 11:17 46.55650 39.59976 35146 ft 402 kts 200°
2026-05-01 11:17 46.50218 39.58093 35153 ft 402 kts 200°
2026-05-01 11:18 46.44760 39.56203 34834 ft 406 kts 200°
2026-05-01 11:18 46.42019 39.55257 34413 ft 398 kts 201°
2026-05-01 11:18 46.39364 39.54345 33583 ft 398 kts 201°
2026-05-01 11:19 46.36672 39.53427 32852 ft 396 kts 200°
2026-05-01 11:19 46.33970 39.52577 32134 ft 395 kts 200°
2026-05-01 11:19 46.31269 39.51763 31371 ft 396 kts 199°
2026-05-01 11:19 46.28560 39.50955 30589 ft 397 kts 199°
2026-05-01 11:20 46.25887 39.50156 29719 ft 398 kts 199°
2026-05-01 11:20 46.23184 39.49347 29113 ft 392 kts 199°
2026-05-01 11:20 46.20522 39.48549 28488 ft 387 kts 199°
2026-05-01 11:20 46.17900 39.47760 27909 ft 382 kts 199°
2026-05-01 11:21 46.15347 39.46989 27348 ft 376 kts 199°
2026-05-01 11:21 46.12797 39.46218 26778 ft 372 kts 199°
2026-05-01 11:21 46.10267 39.45452 26213 ft 369 kts 199°
2026-05-01 11:21 46.07769 39.44696 25649 ft 365 kts 198°
2026-05-01 11:22 46.05283 39.43945 25110 ft 362 kts 198°
2026-05-01 11:22 46.02823 39.43202 24566 ft 359 kts 198°
2026-05-01 11:22 46.00416 39.42475 24036 ft 356 kts 198°
2026-05-01 11:22 45.97998 39.41746 23452 ft 354 kts 198°
2026-05-01 11:23 45.95589 39.41021 22839 ft 351 kts 198°
2026-05-01 11:23 45.93191 39.40300 22291 ft 348 kts 198°
2026-05-01 11:23 45.90818 39.39588 21734 ft 347 kts 197°
2026-05-01 11:23 45.88496 39.38892 21199 ft 345 kts 197°
2026-05-01 11:24 45.86122 39.38170 20657 ft 352 kts 197°
2026-05-01 11:24 45.83687 39.37418 20115 ft 360 kts 197°
2026-05-01 11:24 45.78811 39.35925 18986 ft 354 kts 197°
2026-05-01 11:25 45.76434 39.35199 18442 ft 352 kts 197°
2026-05-01 11:25 45.71660 39.33741 17222 ft 347 kts 196°
2026-05-01 11:25 45.69331 39.33031 16663 ft 344 kts 196°
2026-05-01 11:26 45.66996 39.32319 16125 ft 341 kts 196°
2026-05-01 11:26 45.62583 39.30131 15065 ft 331 kts 208°
2026-05-01 11:26 45.60545 39.28714 14554 ft 328 kts 208°
2026-05-01 11:27 45.58523 39.27292 14045 ft 320 kts 208°
2026-05-01 11:27 45.56529 39.25896 13479 ft 318 kts 208°
2026-05-01 11:27 45.54533 39.24508 12949 ft 320 kts 208°
2026-05-01 11:27 45.52506 39.23109 12441 ft 327 kts 207°
2026-05-01 11:28 45.50442 39.21692 11926 ft 331 kts 207°
2026-05-01 11:28 45.48362 39.20271 11395 ft 328 kts 207°
2026-05-01 11:28 45.46337 39.18893 11017 ft 322 kts 206°
2026-05-01 11:29 45.42464 39.16267 10760 ft 295 kts 206°
2026-05-01 11:29 45.40641 39.15033 10640 ft 284 kts 206°
2026-05-01 11:29 45.37206 39.12708 10408 ft 263 kts 206°
2026-05-01 11:30 45.35594 39.11618 10303 ft 254 kts 206°
2026-05-01 11:30 45.34024 39.10558 10202 ft 246 kts 206°
2026-05-01 11:30 45.32495 39.09525 10006 ft 241 kts 206°
2026-05-01 11:30 45.30985 39.08506 9750 ft 239 kts 206°
2026-05-01 11:31 45.29486 39.07494 9465 ft 237 kts 206°
2026-05-01 11:31 45.27999 39.06491 9197 ft 236 kts 206°
2026-05-01 11:31 45.26532 39.05502 8928 ft 235 kts 205°
2026-05-01 11:31 45.25054 39.04506 8663 ft 235 kts 205°
2026-05-01 11:32 45.23560 39.03502 8411 ft 240 kts 205°
2026-05-01 11:32 45.22032 39.02473 8146 ft 247 kts 205°
2026-05-01 11:32 45.20467 39.01422 7859 ft 249 kts 205°
2026-05-01 11:32 45.18925 39.00386 7587 ft 247 kts 205°
2026-05-01 11:33 45.17366 38.99340 7310 ft 246 kts 205°
2026-05-01 11:33 45.15818 38.98301 7050 ft 245 kts 205°
2026-05-01 11:33 45.14278 38.97267 6776 ft 244 kts 204°
2026-05-01 11:33 45.12763 38.96253 6516 ft 243 kts 204°
2026-05-01 11:34 45.11237 38.95231 6234 ft 243 kts 204°
2026-05-01 11:34 45.09708 38.94207 5958 ft 241 kts 203°
2026-05-01 11:34 45.08191 38.93192 5690 ft 240 kts 203°
2026-05-01 11:34 45.06686 38.92185 5449 ft 238 kts 202°
2026-05-01 11:35 45.05211 38.91200 5192 ft 237 kts 202°
2026-05-01 11:35 45.03718 38.90206 4959 ft 238 kts 202°
2026-05-01 11:35 45.02202 38.89195 4717 ft 245 kts 201°
2026-05-01 11:35 45.00626 38.88147 4382 ft 256 kts 201°
2026-05-01 11:36 44.98955 38.87561 4184 ft 241 kts 173°
2026-05-01 11:36 44.97400 38.88134 4105 ft 225 kts 149°
2026-05-01 11:36 44.96134 38.89313 4010 ft 216 kts 139°
2026-05-01 11:36 44.94963 38.90599 3906 ft 210 kts 138°
2026-05-01 11:37 44.93823 38.91858 3801 ft 204 kts 139°
2026-05-01 11:37 44.92714 38.93075 3664 ft 200 kts 139°
2026-05-01 11:37 44.91776 38.94469 3468 ft 191 kts 113°
2026-05-01 11:37 44.91617 38.96203 3254 ft 179 kts 73°
2026-05-01 11:38 44.92249 38.97683 3125 ft 176 kts 61°
2026-05-01 11:38 44.92842 38.99175 3060 ft 175 kts 60°
2026-05-01 11:38 44.93533 39.00575 2876 ft 173 kts 56°
2026-05-01 11:38 44.94007 39.01464 2729 ft 166 kts 56°
2026-05-01 11:39 44.94682 39.02709 2533 ft 153 kts 56°
2026-05-01 11:39 44.95498 39.04213 2271 ft 137 kts 55°
2026-05-01 11:39 44.95873 39.04905 2157 ft 129 kts 54°
2026-05-01 11:39 44.96412 39.05899 2039 ft 124 kts 54°
2026-05-01 11:40 44.96935 39.06865 1870 ft 124 kts 54°
2026-05-01 11:40 44.97464 39.07841 1701 ft 124 kts 54°
2026-05-01 11:40 44.98167 39.09136 1497 ft 127 kts 54°
2026-05-01 11:40 44.98534 39.09807 1380 ft 129 kts 54°
2026-05-01 11:41 44.99074 39.10802 1161 ft 128 kts 54°
2026-05-01 11:41 44.99607 39.11790 1038 ft 125 kts 53°
2026-05-01 11:41 45.00146 39.12781 850 ft 129 kts 53°
2026-05-01 11:41 45.00690 39.13790 725 ft 132 kts 52°
2026-05-01 11:42 45.01261 39.14829 535 ft 134 kts 51°
2026-05-01 11:42 45.01826 39.15868 393 ft 133 kts 52°
2026-05-01 11:42 45.02387 39.16906 209 ft 133 kts 52°
2026-05-01 11:42 45.02940 39.17952 119 ft 133 kts 53°
2026-05-01 11:43 45.03443 39.18854 115 ft 96 kts 51°
2026-05-01 11:43 45.03720 39.19361 114 ft 58 kts 52°
2026-05-01 11:43 45.03943 39.19773 115 ft 48 kts 52°
2026-05-01 11:44 45.04222 39.20278 117 ft 13 kts 32°
2026-05-01 11:44 45.04307 39.20245 111 ft 16 kts 326°
2026-05-01 11:44 45.04324 39.20101 105 ft 16 kts 240°
2026-05-01 11:44 45.04257 39.19972 107 ft 17 kts 233°
2026-05-01 11:45 45.04176 39.19818 107 ft 23 kts 232°
2026-05-01 11:45 45.04069 39.19622 107 ft 28 kts 232°
2026-05-01 11:45 45.03940 39.19385 106 ft 32 kts 232°
2026-05-01 11:45 45.03796 39.19119 106 ft 36 kts 232°
2026-05-01 11:46 45.03641 39.18833 106 ft 38 kts 233°
2026-05-01 11:46 45.03474 39.18525 106 ft 41 kts 232°
2026-05-01 11:46 45.03297 39.18199 106 ft 43 kts 233°
2026-05-01 11:46 45.03113 39.17860 106 ft 44 kts 232°
2026-05-01 11:47 45.02923 39.17509 106 ft 44 kts 233°
2026-05-01 11:47 45.02820 39.17322 106 ft 11 kts 231°
2026-05-01 11:47 45.02817 39.17232 106 ft 10 kts 310°
2026-05-01 11:47 45.02872 39.17168 105 ft 11 kts 322°
2026-05-01 11:48 45.02940 39.17095 105 ft 14 kts 322°
2026-05-01 11:48 45.03031 39.16996 105 ft 19 kts 322°
2026-05-01 11:48 45.03143 39.16874 105 ft 22 kts 322°
2026-05-01 11:48 45.03273 39.16733 105 ft 25 kts 323°
2026-05-01 11:49 45.03416 39.16578 105 ft 27 kts 322°
2026-05-01 11:49 45.03567 39.16415 105 ft 28 kts 323°
2026-05-01 11:49 45.03728 39.16241 105 ft 30 kts 322°
2026-05-01 11:49 45.03837 39.16004 107 ft 30 kts 280°
2026-05-01 11:50 45.03859 39.15716 108 ft 31 kts 258°
2026-05-01 11:50 45.03760 39.15438 105 ft 32 kts 242°
2026-05-01 11:50 45.03702 39.15251 106 ft 14 kts 286°
2026-05-01 11:50 45.03780 39.15166 105 ft 15 kts 316°
2026-05-01 11:51 45.03764 39.15029 105 ft 16 kts 240°
2026-05-01 11:51 45.03709 39.14881 105 ft 18 kts 242°
2026-05-01 11:51 45.03640 39.14711 105 ft 22 kts 239°
2026-05-01 11:51 45.03561 39.14517 105 ft 23 kts 240°
2026-05-01 11:52 45.03487 39.14331 105 ft 16 kts 241°
2026-05-01 11:52 45.03454 39.14248 105 ft 9 kts 240°
2026-05-01 11:52 45.03429 39.14182 105 ft 7 kts 250°
2026-05-01 11:52 45.03447 39.14138 105 ft 4 kts 331°
2026-05-01 11:53 45.03461 39.14128 105 ft 0 kts 333°